Regional Weather Roundup
Issued by NWS

Home | Current Version | Previous Version | Text Only | Print | Product List | Glossary On
Versions: 1 2 3 4 5 6 7 8 9 10 11 12 13 14 15 16 17 18 19 20 21 22 23 24 25 26 27 28 29 30 31 32 33 34 35 36 37 38 39 40 41 42 43 44 45 46 47 48 49 50
000
ASUS43 KBIS 131620
RWRND

NORTH DAKOTA REGIONAL WEATHER ROUNDUP
NATIONAL WEATHER SERVICE BISMARCK ND
1100 AM CDT SUN JUL 13 2014

NOTE: "FAIR" INDICATES FEW OR NO CLOUDS BELOW 12,000 FEET WITH NO
SIGNIFICANT WEATHER AND/OR OBSTRUCTIONS TO VISIBILITY.


NDZ001>003-009>011-017-131700-
NORTHWEST NORTH DAKOTA

CITY           SKY/WX    TMP DP  RH WIND       PRES   REMARKS
WILLISTON      SUNNY     70  39  32 NW14G22   30.16F
MINOT          SUNNY     67  45  45 W16       30.07F
MINOT AFB      SUNNY     66  47  48 NW18G25   30.06F
$$

NDZ018>021-031>035-040>046-131700-
SOUTHWEST NORTH DAKOTA

CITY           SKY/WX    TMP DP  RH WIND       PRES   REMARKS
BISMARCK       SUNNY     69  41  36 N16G24    30.11F
DICKINSON      CLOUDY    65  46  50 NW8       30.16F
GARRISON         N/A     66  45  46 NW16      30.10F
HETTINGER ARPT SUNNY     69  52  54 N10       30.18S
$$

NDZ004>008-012>016-024-026-027-054-131700-
NORTHEAST NORTH DAKOTA

CITY           SKY/WX    TMP DP  RH WIND       PRES   REMARKS
GRAND FORKS    MOSUNNY   69  47  45 NW18G28   29.94S
GRND FRKS AFB  SUNNY     69  47  45 NW21      29.95F
DEVILS LAKE    MOSUNNY   68  43  40 NW26      29.97F
$$

NDZ022-023-025-028>030-036>039-047>053-131700-
SOUTHEAST NORTH DAKOTA

CITY           SKY/WX    TMP DP  RH WIND       PRES   REMARKS
FARGO          SUNNY     72  44  36 MISG      29.97F
JAMESTOWN      SUNNY     68  42  38 NW18G26   30.03F
$$



USA.gov is the U.S. government's official web portal to all federal, state and local government web resources and services.